Agassiz, British Columbia

3:37 AM PDT on April 26, 2017 (GMT -0700)
Agassiz

Weather History for CWZA - October, 2012

Change the Weather History Date:

Sunday, October 21, 2012

  Actual Average Record
Temperature  
Mean Temperature 44 °F -  
Max Temperature 50 °F 51 °F - ()
Min Temperature 39 °F 39 °F - ()
Degree Days  
Heating Degree Days 20    
Moisture  
Dew Point 39 °F    
Average Humidity 87    
Maximum Humidity 97    
Minimum Humidity 68    
Precipitation  
Precipitation 0.04 in 0.29 in - ()
Sea Level Pressure  
Sea Level Pressure 29.88 in    
Wind  
Wind Speed 2 mph ()    
Max Wind Speed 7 mph    
Max Gust Speed -    
T = Trace of Precipitation, MM = Missing Value Source: Averaged Metar Reports

Daily Weather History Graph

Daily Weather History Graph

Search for Another Location

Airport or City:

Trip Planner

Search our weather history database for the weather conditions in past years. The results will help you decide how hot, cold, wet, or windy it might be!

Date:

Astronomy

Oct. 21, 2012 Rise Set
Actual Time 7:38 AM PDT 6:04 PM PDT
Civil Twilight 7:05 AM PDT 6:36 PM PDT
Nautical Twilight 6:28 AM PDT 7:13 PM PDT
Astronomical Twilight 5:51 AM PDT 7:50 PM PDT
Moon 2:13 PM PDT (10/21) 11:56 PM PDT (10/21)
Length of Visible Light 11h 30m
Length of Day
10h 25m
Waxing Crescent, 46% of the Moon is Illuminated
Oct 21
Waxing Crescent
Oct 21
First Quarter
Oct 29
Full
Nov 6
Last Quarter
Nov 13
New

Hourly Weather History & Observations

Time (PDT) Temp. Windchill Dew Point Humidity Pressure Visibility Wind Dir Wind Speed Gust Speed Precip Events Conditions
12:00 AM 39.7 °F - 38.5 °F 95% 29.88 in - North 1.2 mph - 0.03 in   Unknown
1:00 AM 40.1 °F 38.0 °F 38.1 °F 93% 29.87 in - East 3.5 mph - 0.01 in   Unknown
2:00 AM 39.0 °F - 37.9 °F 96% 29.87 in - NW 1.2 mph - N/A   Unknown
3:00 AM 39.7 °F - 38.8 °F 97% 29.87 in - NNE 2.3 mph - N/A   Unknown
4:00 AM 39.7 °F - 38.7 °F 96% 29.86 in - North 1.2 mph - N/A   Unknown
5:00 AM 40 °F - 39 °F 93% 29.86 in - SW 1.2 mph - -  
5:00 AM 39.7 °F - 38.7 °F 96% 29.86 in - SW 1.2 mph - N/A   Unknown
6:00 AM 40.5 °F - 37.9 °F 91% 29.86 in - North 2.3 mph - N/A   Unknown
7:00 AM 39.7 °F - 38.7 °F 96% 29.86 in - NW 1.2 mph - N/A   Unknown
8:00 AM 40.5 °F 36.5 °F 37.6 °F 89% 29.86 in - NNE 5.8 mph - N/A   Unknown
9:00 AM 41.7 °F 38.8 °F 39.0 °F 90% 29.86 in - NE 4.6 mph - N/A   Unknown
10:00 AM 42.1 °F - 39.7 °F 91% 29.89 in - West 2.3 mph - N/A   Unknown
11:00 AM 42 °F - 39 °F 86% 29.90 in - North 1.2 mph - -  
11:00 AM 41.5 °F - 39.2 °F 91% 29.90 in - North 1.2 mph - 0.01 in   Unknown
12:00 PM 43.2 °F - 39.2 °F 86% 29.90 in - SSE 1.2 mph - 0.05 in   Unknown
2:00 PM 46.9 °F - 39.9 °F 77% 29.89 in - SE 3.5 mph - N/A   Unknown
3:00 PM 50.0 °F - 40.6 °F 70% 29.88 in - SE 2.3 mph - N/A   Unknown
4:00 PM 48.7 °F - 38.5 °F 68% 29.88 in - ESE 2.3 mph - N/A   Unknown
5:00 PM 47 °F - 41 °F 73% 29.88 in - NW 2.3 mph - -  
5:00 PM 46.9 °F - 41.0 °F 80% 29.88 in - NW 2.3 mph - N/A   Unknown
6:00 PM 43.9 °F - 39.6 °F 85% 29.88 in - ENE 2.3 mph - N/A   Unknown
7:00 PM 44.2 °F 40.3 °F 39.9 °F 85% 29.87 in - NE 6.9 mph - N/A   Unknown
8:00 PM 43.5 °F 40.9 °F 39.4 °F 85% 29.88 in - NE 4.6 mph - N/A   Unknown
9:00 PM 43.0 °F 39.5 °F 39.2 °F 86% 29.88 in - NE 5.8 mph - N/A   Unknown
10:00 PM 42.8 °F 40.1 °F 38.5 °F 85% 29.87 in - North 4.6 mph - N/A   Unknown
11:00 PM 40 °F - 37 °F 85% 29.87 in - NE 3.5 mph - -  
11:00 PM 40.3 °F 38.2 °F 37.0 °F 88% 29.87 in - NE 3.5 mph - N/A   Unknown